Regional Weather Roundup
Issued by NWS Lake Charles, LA

Home | Current Version | Previous Version | Text Only | Print | Product List | Glossary On
Versions: 1 2 3 4 5 6 7 8 9 10 11 12 13 14 15 16 17 18 19 20 21 22 23 24 25 26 27
000
ASUS44 KLCH 221610
RWRLCH
REGIONAL WEATHER ROUNDUP
NATIONAL WEATHER SERVICE LAKE CHARLES LA
1000 AM CST SUN JAN 22 2017

Note: "fair" indicates few or no clouds below 12,000 feet with no
significant weather and/or obstructions to visibility.


ACROSS SOUTHEAST TEXAS

CITY           SKY/WX    TMP DP  RH WIND       PRES   REMARKS
BEAUMONT       SUNNY     65  36  34 W17G32    29.55S
BEAUMONT CITY  PTSUNNY   64  35  34 W21G29    29.57R
ORANGE         SUNNY     64  36  34 W17G28    29.57S
JASPER         PTSUNNY   58  43  56 SW7       29.55R
$$

ACROSS CENTRAL LOUISIANA

CITY           SKY/WX    TMP DP  RH WIND       PRES   REMARKS
LEESVILLE      CLOUDY    58  40  49 W16       29.50R
FULLERTON      FAIR      60  40  47 VRB3      29.47R
ALEXANDRIA INT SUNNY     60  43  53 W18G24    29.47R
ESLER FIELD    SUNNY     61  42  49 W20G25    29.47S
DERIDDER       FAIR      60  36  41 W17G28    29.53R
OAKDALE        SUNNY     62  41  45 SW10G18   29.52R
OPELOUSAS      FAIR      63  40  43 W18G24    29.52S
$$

ACROSS SOUTHWEST AND SOUTH CENTRAL LOUISIANA

CITY           SKY/WX    TMP DP  RH WIND       PRES   REMARKS
SULPHUR        SUNNY     65  38  35 W17G26    29.55S
LAKE CHARLES   SUNNY     64  37  36 W15G24    29.54S
CHENNAULT INT  NOT AVBL
CAMERON PHI    SUNNY     64  41  42 W15G35    29.55S
DEQUINCY       FAIR      61  37  40 W13G22    29.53S
JENNINGS       FAIR      63  41  45 W18G25    29.81S
LAFAYETTE      SUNNY     66  39  37 W20G29    29.53R
NEW IBERIA     LGT RAIN  65  40  39 W18G30    29.53F
ABBEVILLE      FAIR      64  39  39 W22G31    29.54S
PATTERSON      SUNNY     66  51  58 W22G30    29.54F
SALT POINT     NOT AVBL
$$

SELECTED SITES ACROSS THE REGION

CITY           SKY/WX    TMP DP  RH WIND       PRES   REMARKS
HOUSTON BUSH   MOSUNNY   62  37  39 W17G29    29.60R
HOUSTON HOBBY  MOSUNNY   63  35  35 W21G29    29.61R
GALVESTON      SUNNY     66  37  34 W21G38    29.61F
COLLEGE STAT   PTSUNNY   61  40  45 W21G35    29.62R
CONROE         CLOUDY    61  36  39 W15G28    29.58R
HUNTSVILLE     CLOUDY    60  37  42 W16G26    29.57R
LUFKIN         CLOUDY    58  39  49 W12       29.52R
SHREVEPORT     MOSUNNY   61  38  42 W18G25    29.45R
MONROE         SUNNY     61  47  59 W14G25    29.43R
NATCHEZ MS     MOSUNNY   57  48  72 SW13      29.46S
BATON ROUGE    CLOUDY    62  52  69 SW12G21   29.51R
N.O. INTL ARPT CLOUDY    58  50  75 W7        29.52S
SLIDELL        LGT RAIN  56  52  86 NE5       29.49F
$$

MARINE REPORTS

STATION/POSITION TIME  SKY/WX   TEMP    WIND        PRES    VSBY
                                AIR SEA DIR/SP/G
                 (UTC)          (F)     (DEG/KT/KT) (MB)    (MI)
BUOY 30 S HIGH I 1450            64 65  260/ 25/ 31 1001.8
WVE H/P(F/S)=  5/ 5

SEA RIM ST PARK  1600            62     260/ 18/ 22 1002.2R
PORT ARTHUR      1548               64  260/ 15/ 25 1001.0R
SABINE PASS N    1548            64 67  250/ 12/ 20 1002.7R
TEXAS POINT      NOT AVBL
CALCASIEU PASS   1548            63 67  280/ 19/ 25   N/A
LK CHARLES BEACH 1548            63                 1000.5S
MARSH ISLAND     NOT AVBL
FRESH WATER LOCK 1548            65     250/ 19/ 27 1001.8R
AMERADA PASS     1548            63 55  230/  5/  6 1000.6F
$$




USA.gov is the U.S. government's official web portal to all federal, state and local government web resources and services.